Location: Alfortville
(48.8058°N, 2.4204°E)
Time: 05:24:46
(UTC+00:00)

USA 229 DEB - Pass Details

Date: 07 June 2022
Orbit: 934 x 1278 km, 63.4° (Epoch: 24 May)

Event Time Altitude Azimuth Distance (km) Brightness Sun altitude
Rises 20:50:19 0° 317° (NW) 3,936 9.3 -8.0°
Reaches altitude 10° 20:52:55 10° 319° (NW) 3,022 7.8 -8.3°
Maximum altitude 21:00:14 81° 47° (NE) 1,218 4.0 -9.1°
Enters shadow 21:07:43 12° 135° (SE) 3,103 5.5 -9.8°
